Lihue, HI

2:04 PM HST on October 20, 2017 (GMT -1000)
Lihue

Weather History for PHLI - March, 2015

Change the Weather History Date:

Wednesday, March 11, 2015

  Actual Average Record
Temperature  
Mean Temperature 70 °F 72 °F  
Max Temperature 78 °F 78 °F 86 °F (1984)
Min Temperature 62 °F 67 °F 58 °F (1969)
Degree Days  
Heating Degree Days 0 0  
Month to date heating degree days 0 0  
Since 1 July heating degree days 0 0  
Cooling Degree Days 5 7  
Month to date cooling degree days 73 77  
Year to date cooling degree days 529 472  
Growing Degree Days 18 (Base 50)    
Moisture  
Dew Point 59 °F    
Average Humidity 66    
Maximum Humidity 78    
Minimum Humidity 53    
Precipitation  
Precipitation 0.00 in 0.15 in 5.64 in (2006)
Month to date precipitation 0.43 1.61  
Year to date precipitation 2.34 8.52  
Snow  
Snow 0.00 in - - ()
Month to date snowfall 0.0  
Since 1 July snowfall 0.0  
Snow Depth 0.00 in    
Sea Level Pressure  
Sea Level Pressure 29.89 in    
Wind  
Wind Speed 7 mph (NNW)    
Max Wind Speed 14 mph    
Max Gust Speed 21 mph    
Visibility 10 miles    
Events      
T = Trace of Precipitation, MM = Missing Value Source: NWS Daily Summary

Daily Weather History Graph

Daily Weather History Graph

Search for Another Location

Airport or City:

Trip Planner

Search our weather history database for the weather conditions in past years. The results will help you decide how hot, cold, wet, or windy it might be!

Date:

Astronomy

Mar. 11, 2015 Rise Set
Actual Time 6:49 AM HST 6:45 PM HST
Civil Twilight 6:27 AM HST 7:07 PM HST
Nautical Twilight 6:01 AM HST 7:33 PM HST
Astronomical Twilight 5:35 AM HST 7:59 PM HST
Moon No Moon Rise 10:41 AM HST (3/11)
Length of Visible Light 12h 40m
Length of Day
11h 55m
Waning Gibbous, 68% of the Moon is Illuminated
Mar 11
Waning Gibbous
Mar 13
Last Quarter
Mar 19
New
Mar 26
First Quarter
Apr 4
Full

Hourly Weather History & Observations

Time (HST) Temp. Dew Point Humidity Pressure Visibility Wind Dir Wind Speed Gust Speed Precip Events Conditions
12:53 AM 64.0 °F 57.0 °F 78% 29.92 in 10.0 mi West 6.9 mph - N/A   Clear
1:53 AM 64.0 °F 57.0 °F 78% 29.91 in 10.0 mi West 8.1 mph - N/A   Clear
2:53 AM 63.0 °F 55.9 °F 78% 29.88 in 10.0 mi West 6.9 mph - N/A   Clear
3:53 AM 63.0 °F 55.9 °F 78% 29.88 in 10.0 mi WSW 5.8 mph - N/A   Clear
4:53 AM 63.0 °F 55.9 °F 78% 29.87 in 10.0 mi West 6.9 mph - N/A   Clear
5:53 AM 63.0 °F 55.9 °F 78% 29.88 in 10.0 mi WNW 6.9 mph - N/A   Clear
6:53 AM 63.0 °F 55.9 °F 78% 29.89 in 10.0 mi West 8.1 mph - N/A   Clear
7:53 AM 64.0 °F 57.0 °F 78% 29.90 in 10.0 mi WNW 5.8 mph - N/A   Clear
8:53 AM 68.0 °F 57.0 °F 68% 29.92 in 10.0 mi West 4.6 mph - N/A   Scattered Clouds
9:53 AM 71.1 °F 57.0 °F 61% 29.93 in 10.0 mi NW 9.2 mph - N/A   Overcast
10:53 AM 73.9 °F 55.9 °F 53% 29.91 in 10.0 mi Calm Calm - N/A   Mostly Cloudy
11:53 AM 75.0 °F 57.9 °F 55% 29.91 in 10.0 mi East 5.8 mph - N/A   Partly Cloudy
12:08 PM 75.2 °F 57.2 °F 53% 29.91 in 10.0 mi ESE 8.1 mph - N/A   Scattered Clouds
12:37 PM 73.4 °F 62.6 °F 69% 29.89 in 10.0 mi ENE 9.2 mph 18.4 mph N/A   Scattered Clouds
12:53 PM 73.9 °F 60.1 °F 62% 29.88 in 10.0 mi East 11.5 mph 18.4 mph N/A   Scattered Clouds
1:53 PM 73.9 °F 61.0 °F 64% 29.86 in 10.0 mi NE 9.2 mph - N/A   Mostly Cloudy
2:53 PM 73.9 °F 62.1 °F 66% 29.84 in 10.0 mi NE 11.5 mph - N/A   Partly Cloudy
3:53 PM 72.0 °F 61.0 °F 68% 29.84 in 10.0 mi NE 11.5 mph - N/A   Mostly Cloudy
4:53 PM 71.1 °F 61.0 °F 70% 29.85 in 10.0 mi NNE 10.4 mph - N/A   Mostly Cloudy
5:53 PM 70.0 °F 61.0 °F 73% 29.86 in 10.0 mi NNE 10.4 mph - N/A   Mostly Cloudy
6:53 PM 69.1 °F 60.1 °F 73% 29.88 in 10.0 mi North 9.2 mph - N/A   Scattered Clouds
7:49 PM 66.2 °F 59.0 °F 78% 29.90 in 10.0 mi North 6.9 mph - N/A   Scattered Clouds
7:53 PM 66.9 °F 60.1 °F 79% 29.90 in 10.0 mi North 6.9 mph - N/A   Partly Cloudy
8:53 PM 66.9 °F 59.0 °F 76% 29.92 in 10.0 mi West 8.1 mph - N/A   Partly Cloudy
9:53 PM 66.0 °F 59.0 °F 78% 29.93 in 10.0 mi NNW 5.8 mph - N/A   Scattered Clouds
10:53 PM 66.9 °F 59.0 °F 76% 29.92 in 10.0 mi North 8.1 mph - N/A   Overcast
11:53 PM 66.9 °F 59.0 °F 76% 29.93 in 10.0 mi North 3.5 mph - N/A   Overcast